Other Public Products
Issued by NWS Grand Forks, ND

Home | Current Version | Previous Version | Graphics & Text | Print | Product List | Glossary On
Versions: 1 2 3 4 5 6 7 8 9 10 11 12 13 14 15 16 17 18 19 20 21 22 23 24 25 26 27 28 29 30 31 32 33 34 35 36 37 38 39 40 41 42 43 44 45 46 47 48 49 50
000
FPUS83 KFGF 050310
OPUFGF
PRAIRIE TO PINES WEATHER ROUNDUP
NATIONAL WEATHER SERVICE EASTERN NORTH DAKOTA/GRAND FORKS ND
1000 PM CDT MON MAY 04 2015

 **SATELLITE DATA USED TO AUGMENT SKY COVER AT AUTOMATED STATIONS**
 *****  WEATHER ACROSS EASTERN NORTH DAKOTA  *****

CITY           SKY/WX    TMP DP  RH WIND       PRES   REMARKS
GRAND FORKS    CLEAR     56  27  32 SE7       30.16R
GRAND FORKS AF CLEAR     49  28  43 S5        30.16R
GRAND CITY NWS   N/A     54 N/A N/A E5          N/A
BUXTON         NOT AVBL
DEVILS LAKE    CLEAR     55  34  44 SE7       30.15R
FARGO          CLEAR     59  25  27 S3        30.17R
WAHPETON ARPT  CLEAR     54  27  35 E5        30.19R
$$

 *****  WEATHER ACROSS CENTRAL AND WESTERN NORTH DAKOTA  *****

CITY           SKY/WX    TMP DP  RH WIND       PRES   REMARKS
JAMESTOWN      CLEAR     53  25  33 SE8       30.15R
BISMARCK       PTCLDY    49  30  48 SE6       30.13R
MINOT          CLEAR     60  29  30 S12       30.08R
MINOT AFB      CLEAR     54  29  39 S10       30.07R
GARRISON         N/A     51  32  48 S7        30.10R
WILLISTON      CLEAR     59  37  44 S16G23    30.04R
DICKINSON      CLEAR     48  32  53 S13       30.08S
HETTINGER      CLOUDY    51  32  48 SE10      30.11S
$$

 *****  OTHER OBSERVATIONS NORTHEAST NORTH DAKOTA  *****

CITY           SKY/WX    TMP DP  RH WIND       PRES   REMARKS
WALHALLA       FAIR      52  32  46 CALM      30.15R
LANGDON        FAIR      48  23  37 SE9       30.16R
CAVALIER       FAIR      54  30  40 CALM      30.15R
GRAFTON        FAIR      52  28  40 S8        30.17R HAZE
CANDO          FAIR      48  23  37 SE8       30.15R
FORT TOTTEN    NOT AVBL
ROLLA          NOT AVBL
RUGBY          NOT AVBL
 ***** THE ABOVE OBSERVATIONS ARE NON NWS ARE NOT QUALITY
        CONTROLLED AND MAY MIS-REPORT RAIN FOR SNOW...
$$

 *****  OTHER OBSERVATIONS SOUTHEAST NORTH DAKOTA *****

CITY           SKY/WX    TMP DP  RH WIND       PRES   REMARKS
COOPERSTOWN    NOT AVBL
VALLEY CITY    FAIR      55  27  33 S8        30.17S
OAKES            N/A     50  28  43 E9        30.17R
GWINNER        CLEAR     54  28  37 E8        30.18R
BUFFALO        NOT AVBL
WYNDMERE       NOT AVBL
 ***** THE ABOVE OBSERVATIONS ARE NON NWS ARE NOT QUALITY
       CONTROLLED AND MAY MIS-REPORT RAIN FOR SNOW...
$$

  *****  WEATHER ACROSS NORTHERN MINNESOTA  *****

CITY           SKY/WX    TMP DP  RH WIND       PRES   REMARKS
FLAG ISLAND    CLEAR     52  41  66 CALM      30.18R
WARROAD        CLEAR     48  34  57 CALM      30.20R
ROSEAU         CLEAR     52  28  40 SE5       30.19R
HALLOCK        CLEAR     52  28  40 SE5       30.16R
THF RVR FALLS  CLEAR     55  25  30 SE5       30.19S
HALSTAD        NOT AVBL
FOSSTON        CLEAR     48  12  23 CALM      30.21R
BAUDETTE       CLEAR     48  37  65 CALM      30.20R
WASKISH        CLEAR     45  36  70 CALM      30.21
CROOKSTON      FAIR      59  27  29 SE5       30.19R
$$
  *****  WEATHER ACROSS CENTRAL AND WEST MINNESOTA  *****

CITY           SKY/WX    TMP DP  RH WIND       PRES   REMARKS
BEMIDJI        CLEAR     47  28  46 E3        30.22R
PARK RAPIDS    CLEAR     56  29  35 E6        30.21R
WADENA         CLEAR     50  34  53 CALM      30.20S
DETROIT LAKES  CLEAR     55  37  50 CALM      30.21R
MOORHEAD       CLEAR     57  25  28 S5        30.19R
FERGUS FALLS   CLEAR     55  30  38 E3        30.20R
ELBOW LAKE     FAIR      57  31  37 NE7       30.19R
MORRIS MN      CLEAR     55  28  35 E8        30.17S
STAPLES        CLEAR     52  30  43 CALM      30.21S
WHEATON        PTCLDY    55  27  33 E7        30.19R
$$
  *****  WEATHER ELSEWHERE ACROSS MINNESOTA  *****

CITY           SKY/WX    TMP DP  RH WIND       PRES   REMARKS
DULUTH         CLEAR     51  22  31 CALM      30.22R
INTRNTL FALLS  CLEAR     40  31  70 CALM      30.21R
ELY            CLEAR     45  28  53 CALM      30.23R
CLOQUET        CLEAR     45  19  36 CALM      30.22R
BRAINERD       CLEAR     44  29  55 CALM      30.22R
HIBBING        CLEAR     41  25  53 NW6       30.22R
ALEXANDRIA     CLEAR     53  30  41 E6        30.20S
SAINT CLOUD    CLEAR     53  25  33 NE3       30.20R
MINNEAPOLIS    MOCLDY    63  30  28 NE5       30.18R
$$

  *****  WEATHER ACROSS SOUTH DAKOTA  *****

CITY           SKY/WX    TMP DP  RH WIND       PRES   REMARKS
SIOUX FALLS    CLOUDY    58  30  34 E9        30.13R
BROOKINGS      CLOUDY    63  27  25 E9        30.16R
WATERTOWN      PTCLDY    59  27  29 E8        30.16R
HURON          MOCLDY    56  30  37 NE7       30.12R
SISSETON         N/A     55  27  34 E7        30.16R
ABERDEEN       PTCLDY    59  28  30 E9        30.14R
MITCHELL       CLOUDY    58  31  35 E9        30.11R
PIERRE         MOCLDY    57  23  26 E10       30.09R
MOBRIDGE       CLOUDY    60  24  25 E10       30.10S
RAPID CITY     CLOUDY    52  39  61 S6        30.11R
$$

  *****  SOME WEATHER IN NEARBY STATES *****

CITY           SKY/WX    TMP DP  RH WIND       PRES   REMARKS
GLASGOW MT     CLEAR     61  40  45 SE16      29.87S
GREAT FALLS MT CLEAR     58  21  24 W5        29.77S
CHEYENNE WY    CLOUDY    47  40  76 SE17      30.11R
SCOTTSBLUFF NE CLEAR     51  38  60 SE13      30.10R
OMAHA NE       CLOUDY    60  56  86 E10       30.07R
DES MOINES IA  LGT RAIN  64  60  87 E12       30.08S
DAVENPORT IA   CLOUDY    65  62  90 NE6       30.11R
CHICAGO IL     CLOUDY    55  39  54 NE7       30.18S
EAU CLAIRE WI  PTCLDY    52  35  52 NE3       30.18R
LA CROSSE WI   PTCLDY    60  44  55 N5        30.15R
$$

  *****  SOME NATIONAL WEATHER *****

CITY           SKY/WX    TMP DP  RH WIND       PRES   REMARKS
LA GUARDIA NY  PTCLDY    73  41  31 SW14G24   30.15S
RALEIGH NC     CLEAR     69  54  58 S12G18    30.31R
ATLANTA GA     CLEAR     70  51  51 S3        30.29R
NEW ORLEANS LA FAIR      73  61  65 SE7       30.17R
OKLAHOMA CITY  MOCLDY    68  56  65 S7        30.01R
ALBUQUERQUE NM CLOUDY    56  47  71 E17G24    29.95F
SALT LAKE CITY CLOUDY    68  41  37 E7        29.86R
LOS ANGELES CA PTCLDY    57  51  80 W13       29.96R
BOISE ID       MOCLDY    77  33  20 W3        29.73R
SEATTLE WA     MOCLDY    54  44  69 SW12G24   29.96F
$$

*** WEATHER ACROSS MANITOBA...SASKATCHEWAN AND ONTARIO ***
                ***ONTARIO***

CITY           SKY/WX    TMP DP  RH WIND       PRES   REMARKS
GERALDTON      CLEAR     46  27  46 W6        30.17R
THUNDER BAY    CLEAR     45  30  57 CALM      30.21S
SIOUX LOOKOUT  PTCLDY    43  34  70 SW3       30.19R
TORONTO        PTCLDY    59  50  72 NW14      30.17R
BIG TROUT LK   CLEAR     34  25  69 NW8       30.09R
PICKLE LAKE    NOT AVBL
DRYDEN         CLEAR     50  34  53 W5        30.20R
KENORA         PTCLDY    48  32  53 SE5       30.20R
$$
                *** MANITOBA***

CITY           SKY/WX    TMP DP  RH WIND       PRES   REMARKS
BRANDON        PTCLDY    55  30  38 SE7       30.10R
DAUPHIN        CLEAR     50  36  57 SE10      30.08S
ISLAND LAKE    PTCLDY    37  23  56 CALM      30.12R
PILOT MOUND      N/A     50  28  43 E8          N/A
THE PAS        MOCLDY    43  25  49 NE2       30.14R
THOMPSON       PTCLDY    32  18  55 NW5       30.12R
WINNIPEG       CLEAR     50  28  43 E9        30.16R
LYNN LAKE      CLEAR     32  16  51 W5        30.13R
CHURCHILL      MOCLDY    23  18  80 NW23G37   30.01R WCI   7
GILLAM         CLOUDY    34  23  64 W9        30.09R
$$
                ***SASKATCHEWAN***

CITY           SKY/WX    TMP DP  RH WIND       PRES   REMARKS
ESTEVAN        CLEAR     59  37  44 S16       30.03R
KINDERSLEY     PTCLDY    61  36  39 SE12      29.77S
LLOYDMINSTER   MOCLDY    50  28  43 E18       29.90S
PRINCE ALBERT  MOCLDY    52  32  46 NE12      30.01S
REGINA         PTCLDY    59  32  36 SE16      29.92S
YORKTON        PTCLDY    50  32  50 E8        30.03S


USA.gov is the U.S. government's official web portal to all federal, state and local government web resources and services.